sat.trackr.live / text

‹ back to catalog

STARLINK-37114

NORAD 68561 · 2026-070V

PAYLOAD ACTIVE UNKNOWN

§ Identity

Operator
Country
US
Launch date
2026-04-02
Launch site
AFETR
Launch vehicle
Mass (kg)
RCS (m²)

Purposes: comms

External: N2YO · Heavens-Above · Gunter

§ Orbital elements

Epoch: 2026-05-25T00:00:02.000160Z

Period
93.85 min
Inclination
53.1589°
Eccentricity
0.0000181
Mean motion
15.34365104 rev/d
Perigee alt
462.7 km
Apogee alt
462.9 km
Semi-major
6,840.9 km
B*
1.2978e-3
RAAN
7.4686°
Arg perigee
6.3032°
Mean anomaly
131.7076°
Rev number
604

§ Raw data

STARLINK-371141 68561U 26070V   26145.00002315  .00043680  00000+0  12978-2 0  99992 68561  53.1589   7.4686 0000181   6.3032 131.7076 15.34365104  6041

JSON: /api/v1/satellites/68561 · /tle

For live sub-satellite position, see the globe view (requires WebGL).

§ Visibility from observer

Set your observer location to see the next 7 days of passes ≥ 10°. The values pass through the URL so the page stays shareable.

No JS? Fill the form by hand. The geolocation button needs JavaScript.